| time (UTC) | temp F | wind direction | speed MPH | gust MPH | rain 1hr in | rain 24hr in | rain mn in | humidity % | barometer mb |
| 20260905190527 | 100 | 180 | 0.0 | 3.0 | 0.00 | 0.00 | 0.00 | 44 | 1013.9 |
| 20260905185531 | 99 | 134 | 2.0 | 4.0 | 0.00 | 0.00 | 0.00 | 48 | 1014.0 |
| 20260905184536 | 101 | 0.0 | 0.0 | 0.00 | 0.00 | 0.00 | 43 | 1014.1 | |
| 20260905183519 | 101 | 210 | 1.0 | 5.0 | 0.00 | 0.00 | 0.00 | 46 | 1014.3 |
| 20260905182522 | 100 | 216 | 1.0 | 3.0 | 0.00 | 0.00 | 0.00 | 48 | 1014.6 |
| 20260905181545 | 97 | 172 | 1.0 | 2.0 | 0.00 | 0.00 | 0.00 | 50 | 1014.7 |
| 20260905180528 | 101 | 164 | 1.0 | 3.0 | 0.00 | 0.00 | 0.00 | 45 | 1014.8 |
| 20260905175531 | 99 | 218 | 1.0 | 5.0 | 0.00 | 0.00 | 0.00 | 48 | 1014.8 |
| 20260905174517 | 100 | 253 | 1.0 | 4.0 | 0.00 | 0.00 | 0.00 | 47 | 1015.3 |
| 20260905173519 | 98 | 0.0 | 2.0 | 0.00 | 0.00 | 0.00 | 51 | 1015.3 | |
| 20260905172523 | 98 | 160 | 2.0 | 4.0 | 0.00 | 0.00 | 0.00 | 49 | 1015.3 |
| 20260905171526 | 98 | 226 | 1.0 | 2.0 | 0.00 | 0.00 | 0.00 | 50 | 1015.4 |
| 20260905170523 | 97 | 139 | 1.0 | 3.0 | 0.00 | 0.00 | 0.00 | 50 | 1015.6 |
| 20260905165520 | 97 | 184 | 1.0 | 4.0 | 0.00 | 0.00 | 0.00 | 50 | 1015.7 |
| 20260905164517 | 96 | 0.0 | 0.0 | 0.00 | 0.00 | 0.00 | 52 | 1015.8 | |
| 20260905163520 | 98 | 180 | 1.0 | 3.0 | 0.00 | 0.00 | 0.00 | 54 | 1015.9 |
| 20260905162523 | 96 | 180 | 0.0 | 3.0 | 0.00 | 0.00 | 0.00 | 56 | 1015.8 |
| 20260905161527 | 96 | 0.0 | 2.0 | 0.00 | 0.00 | 0.00 | 54 | 1015.8 | |
| 20260905160530 | 95 | 0.0 | 0.0 | 0.00 | 0.00 | 0.00 | 56 | 1016.0 | |
| 20260905155515 | 94 | 214 | 1.0 | 3.0 | 0.00 | 0.00 | 0.00 | 57 | 1016.1 |
| 20260905154518 | 93 | 203 | 0.0 | 2.0 | 0.00 | 0.00 | 0.00 | 58 | 1016.0 |
| 20260905153521 | 93 | 233 | 1.0 | 3.0 | 0.00 | 0.00 | 0.00 | 59 | 1016.0 |
| 20260905152524 | 91 | 0.0 | 0.0 | 0.00 | 0.00 | 0.00 | 62 | 1016.2 | |
| 20260905151527 | 91 | 263 | 1.0 | 3.0 | 0.00 | 0.00 | 0.00 | 63 | 1016.2 |
| 20260905150530 | 89 | 0.0 | 0.0 | 0.00 | 0.00 | 0.00 | 69 | 1016.2 | |
| 20260905145516 | 89 | 0.0 | 0.0 | 0.00 | 0.00 | 0.00 | 68 | 1016.2 | |
| 20260905144519 | 88 | 0.0 | 0.0 | 0.00 | 0.00 | 0.00 | 70 | 1016.3 | |
| 20260905143542 | 87 | 0.0 | 0.0 | 0.00 | 0.00 | 0.00 | 72 | 1016.3 | |
| 20260905142525 | 85 | 0.0 | 0.0 | 0.00 | 0.00 | 0.00 | 75 | 1016.3 | |
| 20260905141528 | 84 | 0.0 | 0.0 | 0.00 | 0.00 | 0.00 | 77 | 1016.5 | |
| 20260905140611 | 83 | 0.0 | 0.0 | 0.00 | 0.00 | 0.00 | 82 | 1016.5 | |
| 20260905135516 | 82 | 0.0 | 0.0 | 0.00 | 0.00 | 0.00 | 84 | 1016.6 | |
| 20260905134520 | 80 | 0.0 | 0.0 | 0.00 | 0.00 | 0.00 | 90 | 1016.6 | |
| 20260905133523 | 79 | 0.0 | 0.0 | 0.00 | 0.00 | 0.00 | 92 | 1016.7 | |
| 20260905132540 | 78 | 0.0 | 0.0 | 0.00 | 0.00 | 0.00 | 96 | 1016.7 | |
| 20260905131617 | 76 | 0.0 | 0.0 | 0.00 | 0.00 | 0.00 | 98 | 1016.8 | |
| 20260905130552 | 75 | 0.0 | 0.0 | 0.00 | 0.00 | 0.00 | 99 | 1016.8 | |
| 20260905125517 | 74 | 0.0 | 0.0 | 0.00 | 0.00 | 0.00 | 99 | 1016.7 | |
| 20260905124620 | 73 | 0.0 | 0.0 | 0.00 | 0.00 | 0.00 | 99 | 1016.6 | |
| 20260905123603 | 72 | 0.0 | 0.0 | 0.00 | 0.00 | 0.00 | 99 | 1016.6 | |
| 20260905122526 | 72 | 0.0 | 0.0 | 0.00 | 0.00 | 0.00 | 99 | 1016.5 | |
| 20260905121530 | 71 | 0.0 | 0.0 | 0.00 | 0.00 | 0.00 | 99 | 1016.5 | |
| 20260905120533 | 71 | 0.0 | 0.0 | 0.00 | 0.00 | 0.00 | 99 | 1016.5 | |
| 20260905115518 | 71 | 0.0 | 0.0 | 0.00 | 0.00 | 0.00 | 99 | 1016.3 | |
| 20260905114521 | 71 | 0.0 | 0.0 | 0.00 | 0.00 | 0.00 | 99 | 1016.2 | |
| 20260905113524 | 71 | 0.0 | 0.0 | 0.00 | 0.00 | 0.00 | 99 | 1016.2 | |
| 20260905112527 | 71 | 0.0 | 0.0 | 0.00 | 0.00 | 0.00 | 99 | 1016.1 | |
| 20260905111530 | 71 | 0.0 | 0.0 | 0.00 | 0.00 | 0.00 | 99 | 1016.0 | |
| 20260905110515 | 71 | 0.0 | 0.0 | 0.00 | 0.00 | 0.00 | 99 | 1016.0 | |
| 20260905105518 | 71 | 0.0 | 0.0 | 0.00 | 0.00 | 0.00 | 99 | 1016.0 | |
| 20260905104522 | 71 | 0.0 | 0.0 | 0.00 | 0.00 | 0.00 | 99 | 1016.0 | |
| 20260905103545 | 71 | 0.0 | 0.0 | 0.00 | 0.00 | 0.00 | 99 | 1015.9 | |
| 20260905102608 | 71 | 0.0 | 0.0 | 0.00 | 0.00 | 0.00 | 99 | 1015.8 | |
| 20260905101525 | 71 | 0.0 | 0.0 | 0.00 | 0.00 | 0.00 | 99 | 1015.7 | |
| 20260905100536 | 71 | 0.0 | 0.0 | 0.00 | 0.00 | 0.00 | 99 | 1015.7 | |
| 20260905095519 | 72 | 0.0 | 0.0 | 0.00 | 0.00 | 0.00 | 99 | 1015.7 | |
| 20260905094536 | 72 | 0.0 | 0.0 | 0.00 | 0.00 | 0.00 | 99 | 1015.7 | |
| 20260905093606 | 72 | 0.0 | 0.0 | 0.00 | 0.00 | 0.00 | 99 | 1015.7 | |
| 20260905092529 | 72 | 0.0 | 0.0 | 0.00 | 0.00 | 0.00 | 99 | 1015.6 | |
| 20260905091532 | 72 | 0.0 | 0.0 | 0.00 | 0.00 | 0.00 | 99 | 1015.8 | |
| 20260905090517 | 72 | 0.0 | 0.0 | 0.00 | 0.00 | 0.00 | 99 | 1015.7 | |
| 20260905085520 | 72 | 0.0 | 0.0 | 0.00 | 0.00 | 0.00 | 99 | 1015.6 | |
| 20260905084543 | 72 | 0.0 | 0.0 | 0.00 | 0.00 | 0.00 | 99 | 1015.5 | |
| 20260905083546 | 72 | 0.0 | 0.0 | 0.00 | 0.00 | 0.00 | 99 | 1015.4 | |
| 20260905082530 | 72 | 0.0 | 0.0 | 0.00 | 0.00 | 0.00 | 99 | 1015.3 | |
| 20260905081535 | 72 | 0.0 | 0.0 | 0.00 | 0.00 | 0.00 | 99 | 1015.3 | |
| 20260905080518 | 72 | 0.0 | 0.0 | 0.00 | 0.00 | 0.00 | 99 | 1015.3 | |
| 20260905075541 | 72 | 0.0 | 0.0 | 0.00 | 0.00 | 0.00 | 99 | 1015.2 | |
| 20260905074524 | 72 | 0.0 | 0.0 | 0.00 | 0.00 | 0.00 | 99 | 1015.2 | |
| 20260905073547 | 73 | 0.0 | 0.0 | 0.00 | 0.00 | 0.00 | 99 | 1015.3 | |
| 20260905072610 | 73 | 0.0 | 0.0 | 0.00 | 0.00 | 0.00 | 99 | 1015.2 | |
| 20260905071515 | 73 | 0.0 | 0.0 | 0.00 | 0.00 | 0.00 | 99 | 1015.1 | |
| 20260905070539 | 73 | 0.0 | 0.0 | 0.00 | 0.00 | 0.00 | 99 | 1015.1 | |
| 20260905065522 | 73 | 0.0 | 0.0 | 0.00 | 0.00 | 0.00 | 99 | 1015.1 | |
| 20260905064525 | 73 | 0.0 | 0.0 | 0.00 | 0.00 | 0.00 | 99 | 1015.1 | |
| 20260905063542 | 73 | 0.0 | 0.0 | 0.00 | 0.00 | 0.00 | 99 | 1015.1 | |
| 20260905062519 | 74 | 0.0 | 0.0 | 0.00 | 0.00 | 0.00 | 99 | 1015.0 | |
| 20260905061537 | 73 | 0.0 | 0.0 | 0.00 | 0.00 | 0.00 | 99 | 1015.0 | |
| 20260905060520 | 74 | 0.0 | 0.0 | 0.00 | 0.00 | 0.00 | 99 | 1015.0 | |
| 20260905055523 | 74 | 0.0 | 0.0 | 0.00 | 0.00 | 0.00 | 99 | 1015.1 | |
| 20260905054526 | 74 | 0.0 | 0.0 | 0.00 | 0.00 | 0.00 | 99 | 1015.2 | |
| 20260905053549 | 74 | 0.0 | 0.0 | 0.00 | 0.00 | 0.00 | 99 | 1015.3 | |
| 20260905052552 | 74 | 0.0 | 0.0 | 0.00 | 0.00 | 0.00 | 98 | 1015.3 | |
| 20260905051517 | 74 | 0.0 | 0.0 | 0.00 | 0.00 | 0.00 | 98 | 1015.4 | |
| 20260905050520 | 75 | 0.0 | 0.0 | 0.00 | 0.00 | 0.00 | 99 | 1015.4 | |
| 20260905045542 | 75 | 0.0 | 0.0 | 0.00 | 0.00 | 0.00 | 98 | 1015.4 | |
| 20260905044520 | 75 | 0.0 | 0.0 | 0.00 | 0.00 | 0.00 | 97 | 1015.5 | |
| 20260905043517 | 75 | 0.0 | 0.0 | 0.00 | 0.00 | 0.00 | 97 | 1015.5 | |
| 20260905042520 | 75 | 0.0 | 0.0 | 0.00 | 0.00 | 0.00 | 97 | 1015.5 | |
| 20260905041523 | 75 | 0.0 | 0.0 | 0.00 | 0.00 | 0.00 | 97 | 1015.6 | |
| 20260905040526 | 75 | 0.0 | 0.0 | 0.00 | 0.00 | 0.00 | 96 | 1015.6 | |
| 20260905035529 | 76 | 0.0 | 0.0 | 0.00 | 0.00 | 0.00 | 96 | 1015.7 | |
| 20260905034532 | 76 | 0.0 | 0.0 | 0.00 | 0.00 | 0.00 | 96 | 1015.7 | |
| 20260905033558 | 76 | 0.0 | 0.0 | 0.00 | 0.00 | 0.00 | 95 | 1015.8 | |
| 20260905032521 | 76 | 0.0 | 0.0 | 0.00 | 0.00 | 0.00 | 94 | 1015.9 | |
| 20260905031524 | 77 | 0.0 | 0.0 | 0.00 | 0.00 | 0.00 | 94 | 1015.9 | |
| 20260905030527 | 77 | 0.0 | 0.0 | 0.00 | 0.00 | 0.00 | 94 | 1016.0 | |
| 20260905025530 | 77 | 0.0 | 0.0 | 0.00 | 0.00 | 0.00 | 92 | 1016.0 | |
| 20260905024515 | 77 | 0.0 | 0.0 | 0.00 | 0.00 | 0.00 | 92 | 1016.1 | |
| 20260905023518 | 78 | 0.0 | 0.0 | 0.00 | 0.00 | 0.00 | 91 | 1016.2 | |
| 20260905022521 | 78 | 0.0 | 0.0 | 0.00 | 0.00 | 0.00 | 90 | 1016.1 | |
| 20260905021525 | 78 | 0.0 | 0.0 | 0.00 | 0.00 | 0.00 | 90 | 1016.1 | |
| 20260905020528 | 79 | 0.0 | 0.0 | 0.00 | 0.00 | 0.00 | 89 | 1016.1 | |
| 20260905015551 | 79 | 0.0 | 0.0 | 0.00 | 0.00 | 0.00 | 88 | 1016.0 | |
| 20260905014516 | 80 | 0.0 | 0.0 | 0.00 | 0.00 | 0.00 | 87 | 1016.0 | |
| 20260905013519 | 80 | 0.0 | 0.0 | 0.00 | 0.00 | 0.00 | 86 | 1015.7 | |
| 20260905012522 | 80 | 0.0 | 0.0 | 0.00 | 0.00 | 0.00 | 86 | 1015.8 | |
| 20260905011519 | 81 | 0.0 | 0.0 | 0.00 | 0.00 | 0.00 | 85 | 1015.7 | |
| 20260905010516 | 81 | 0.0 | 0.0 | 0.00 | 0.00 | 0.00 | 84 | 1015.6 | |
| 20260905005531 | 82 | 0.0 | 0.0 | 0.00 | 0.00 | 0.00 | 82 | 1015.5 | |
| 20260905004517 | 83 | 0.0 | 0.0 | 0.00 | 0.00 | 0.00 | 80 | 1015.4 | |
| 20260905003640 | 84 | 0.0 | 0.0 | 0.00 | 0.00 | 0.00 | 79 | 1015.5 | |
| 20260905002523 | 84 | 0.0 | 0.0 | 0.00 | 0.00 | 0.00 | 75 | 1015.5 | |
| 20260905001526 | 86 | 0.0 | 0.0 | 0.00 | 0.00 | 0.00 | 73 | 1015.5 | |
| 20260905000529 | 87 | 0.0 | 0.0 | 0.00 | 0.00 | 0.00 | 69 | 1015.4 | |
| 20260904235532 | 88 | 0.0 | 0.0 | 0.00 | 0.00 | 0.00 | 66 | 1015.3 | |
| 20260904234517 | 89 | 0.0 | 0.0 | 0.00 | 0.00 | 0.00 | 64 | 1015.4 | |
| 20260904233521 | 90 | 0.0 | 0.0 | 0.00 | 0.00 | 0.00 | 61 | 1015.4 | |
| 20260904232524 | 92 | 0.0 | 0.0 | 0.00 | 0.00 | 0.00 | 57 | 1015.3 | |
| 20260904231527 | 93 | 0.0 | 0.0 | 0.00 | 0.00 | 0.00 | 53 | 1015.2 | |
| 20260904230530 | 94 | 0.0 | 0.0 | 0.00 | 0.00 | 0.00 | 53 | 1015.1 | |
| 20260904225515 | 95 | 0.0 | 0.0 | 0.00 | 0.00 | 0.00 | 49 | 1015.0 | |
| 20260904224518 | 97 | 0.0 | 0.0 | 0.00 | 0.00 | 0.00 | 45 | 1014.8 | |
| 20260904223521 | 99 | 0.0 | 0.0 | 0.00 | 0.00 | 0.00 | 43 | 1014.8 | |
| 20260904222525 | 100 | 0.0 | 0.0 | 0.00 | 0.00 | 0.00 | 42 | 1014.6 | |
| 20260904221528 | 98 | 102 | 1.0 | 4.0 | 0.00 | 0.00 | 0.00 | 43 | 1014.6 |
| 20260904220525 | 96 | 0.0 | 0.0 | 0.00 | 0.00 | 0.00 | 45 | 1014.7 | |
| 20260904215516 | 98 | 0.0 | 0.0 | 0.00 | 0.00 | 0.00 | 43 | 1014.7 | |
| 20260904214519 | 98 | 0.0 | 0.0 | 0.00 | 0.00 | 0.00 | 42 | 1014.8 | |
| 20260904213617 | 97 | 0.0 | 0.0 | 0.00 | 0.00 | 0.00 | 45 | 1014.7 | |
| 20260904212526 | 98 | 0.0 | 0.0 | 0.00 | 0.00 | 0.00 | 41 | 1014.8 | |
| 20260904211529 | 99 | 0.0 | 0.0 | 0.00 | 0.00 | 0.00 | 39 | 1014.8 | |
| 20260904210532 | 98 | 98 | 1.0 | 5.0 | 0.00 | 0.00 | 0.00 | 44 | 1014.9 |
| 20260904205517 | 99 | 0.0 | 0.0 | 0.00 | 0.00 | 0.00 | 41 | 1015.0 | |
| 20260904204641 | 98 | 0.0 | 0.0 | 0.00 | 0.00 | 0.00 | 45 | 1015.1 | |
| 20260904203523 | 99 | 0.0 | 0.0 | 0.00 | 0.00 | 0.00 | 42 | 1015.2 | |
| 20260904202527 | 99 | 142 | 2.0 | 4.0 | 0.00 | 0.00 | 0.00 | 44 | 1015.3 |
| 20260904201530 | 99 | 190 | 1.0 | 5.0 | 0.00 | 0.00 | 0.00 | 41 | 1015.5 |
| 20260904200515 | 98 | 126 | 2.0 | 4.0 | 0.00 | 0.00 | 0.00 | 44 | 1015.6 |
| 20260904195518 | 98 | 0.0 | 0.0 | 0.00 | 0.00 | 0.00 | 48 | 1015.7 | |
| 20260904194521 | 98 | 0.0 | 0.0 | 0.00 | 0.00 | 0.00 | 45 | 1016.0 | |
| 20260904193524 | 98 | 0.0 | 0.0 | 0.00 | 0.00 | 0.00 | 45 | 1016.2 | |
| 20260904192527 | 99 | 80 | 1.0 | 5.0 | 0.00 | 0.00 | 0.00 | 42 | 1016.4 |
| 20260904191531 | 98 | 173 | 1.0 | 5.0 | 0.00 | 0.00 | 0.00 | 43 | 1016.5 |